FW1328 Weather Reports


Display with metric or nautical units.
time (UTC)temp
F
wind
direction
speed
MPH
gust
MPH
rain 1hr
in
rain 24hr
in
rain mn
in
humidity
%
barometer
mb
20260510174511 68 28 2.0 12.0 0.00 0.00 0.00 43 1016.2
20260510173011 67 28 5.0 13.0 0.00 0.00 0.00 44 1016.4
20260510171510 67 43 6.0 13.0 0.00 0.00 0.00 43 1016.4
20260510170009 66 50 7.0 15.0 0.00 0.00 0.00 44 1016.5
20260510164515 67 355 7.0 14.0 0.00 0.00 0.00 41 1016.4
20260510163007 67 10 5.0 14.0 0.00 0.00 0.00 43 1016.2
20260510161503 65 37 7.0 14.0 0.00 0.00 0.00 46 1016.4
20260510160002 66 53 2.0 11.0 0.00 0.00 0.00 49 1016.6
20260510154601 65 23 3.0 8.0 0.00 0.00 0.00 53 1016.6
20260510153059 65 86 3.0 10.0 0.00 0.00 0.00 52 1016.6
20260510151603 64 29 5.0 11.0 0.00 0.00 0.00 54 1016.5
20260510150107 64 43 4.0 11.0 0.00 0.00 0.00 54 1016.4
20260510144605 63 40 4.0 11.0 0.00 0.00 0.00 57 1016.2
20260510143058 63 54 3.0 9.0 0.00 0.00 0.00 62 1016.0
20260510141548 62 70 6.0 13.0 0.00 0.00 0.00 64 1015.7
20260510140044 61 53 3.0 11.0 0.00 0.00 0.00 67 1015.2
20260510134545 60 61 5.0 14.0 0.00 0.00 0.00 70 1015.0
20260510133039 60 16 3.0 9.0 0.00 0.00 0.00 74 1015.1
20260510131545 58 76 5.0 10.0 0.00 0.00 0.00 77 1014.8
20260510130036 58 15 3.0 9.0 0.00 0.00 0.00 81 1014.7
20260510124539 58 33 4.0 10.0 0.00 0.00 0.00 82 1014.9
20260510123031 58 29 3.0 9.0 0.00 0.00 0.00 85 1014.4
20260510121536 58 51 2.0 8.0 0.00 0.00 0.00 87 1014.0
20260510120032 58 26 4.0 9.0 0.00 0.00 0.00 88 1014.2
20260510114525 58 31 3.0 8.0 0.00 0.00 0.00 89 1013.6
20260510113023 59 5 2.0 8.0 0.00 0.00 0.00 89 1013.5
20260510111522 59 24 3.0 10.0 0.00 0.00 0.00 90 1013.3
20260510110018 59 13 2.0 6.0 0.00 0.00 0.00 94 1012.5
20260510104516 59 60 2.0 9.0 0.00 0.00 0.00 95 1012.2
20260510103013 59 24 2.0 5.0 0.00 0.00 0.00 95 1012.1
20260510101513 60 25 1.0 6.0 0.00 0.00 0.00 95 1011.8
20260510100012 60 24 2.0 4.0 0.00 0.00 0.00 94 1011.9
20260510094511 59 338 1.0 6.0 0.00 0.00 0.00 94 1012.0
20260510093011 60 315 4.0 9.0 0.00 0.00 0.00 93 1012.1
20260510091508 60 29 0.0 3.0 0.00 0.00 0.00 93 1011.1
20260510090006 60 31 1.0 5.0 0.00 0.00 0.00 93 1011.2
20260510084505 61 5 3.0 4.0 0.00 0.00 0.00 92 1011.2
20260510083002 61 67 1.0 2.0 0.00 0.00 0.00 91 1010.8
20260510081559 62 67 0.0 2.0 0.00 0.00 0.00 90 1010.4
20260510080104 62 67 1.0 3.0 0.00 0.00 0.00 89 1010.3
20260510074556 62 32 1.0 8.0 0.00 0.00 0.00 87 1010.5
20260510073113 63 5 2.0 8.0 0.00 0.00 0.00 84 1010.7
20260510071552 63 334 1.0 3.0 0.00 0.00 0.00 83 1010.2
20260510070056 63 331 2.0 5.0 0.00 0.00 0.00 82 1010.7
20260510064609 64 103 0.0 2.0 0.00 0.00 0.00 80 1010.2
20260510063043 65 103 0.0 1.0 0.00 0.00 0.00 78 1010.1
20260510061542 65 103 1.0 3.0 0.00 0.00 0.00 77 1010.0
20260510060041 65 103 0.0 3.0 0.00 0.00 0.00 77 1009.8
20260510054543 66 103 2.0 4.0 0.00 0.00 0.00 76 1009.7
20260510053044 66 99 1.0 3.0 0.00 0.00 0.00 76 1009.7
20260510051547 66 98 1.0 4.0 0.00 0.00 0.00 75 1009.7
20260510050037 67 26 1.0 4.0 0.00 0.00 0.00 74 1009.4
20260510044530 67 30 1.0 3.0 0.00 0.02 0.00 72 1008.8
20260510043030 67 5 1.0 5.0 0.00 0.02 0.00 71 1008.8
20260510041531 68 10 2.0 6.0 0.00 0.02 0.00 70 1008.7
20260510040029 68 5 3.0 8.0 0.00 0.02 0.00 67 1008.6
20260510034528 68 339 4.0 10.0 0.00 0.04 0.00 64 1008.9
20260510033025 68 322 2.0 5.0 0.00 0.04 0.00 63 1008.1
20260510031530 69 202 3.0 6.0 0.00 0.04 0.00 62 1007.7
20260510030024 69 216 3.0 6.0 0.00 0.04 0.00 61 1007.6
20260510024524 70 199 3.0 6.0 0.00 0.07 0.00 59 1007.4
20260510023024 71 217 3.0 6.0 0.00 0.07 0.00 58 1007.3
20260510021529 72 202 2.0 5.0 0.00 0.07 0.00 57 1007.1
20260510020029 72 205 2.0 6.0 0.00 0.07 0.00 55 1006.8
20260510014522 73 202 2.0 5.0 0.00 0.08 0.00 55 1006.7
20260510013021 74 194 2.0 4.0 0.00 0.08 0.00 54 1006.5
20260510011522 74 206 2.0 4.0 0.00 0.08 0.00 52 1006.4
20260510010020 75 214 2.0 5.0 0.00 0.08 0.00 51 1006.3
20260510004520 77 220 2.0 5.0 0.00 0.12 0.00 47 1006.2
20260510003021 78 242 2.0 4.0 0.00 0.12 0.00 46 1006.2
20260510001520 80 248 2.0 5.0 0.00 0.12 0.00 44 1006.0
20260510000020 80 290 2.0 4.0 0.00 0.12 0.00 43 1006.0
20260509234518 80 293 3.0 7.0 0.00 0.12 0.00 41 1006.0
20260509233020 80 269 3.0 8.0 0.00 0.12 0.00 41 1006.0
20260509231517 80 277 6.0 11.0 0.00 0.12 0.00 39 1006.0
20260509230016 80 292 3.0 15.0 0.00 0.12 0.00 41 1006.1
20260509224514 81 263 9.0 13.0 0.00 0.12 0.00 39 1006.0
20260509223014 81 282 10.0 15.0 0.00 0.12 0.00 39 1006.0
20260509221514 81 5 3.0 12.0 0.00 0.12 0.00 39 1005.9
20260509220012 81 313 6.0 15.0 0.00 0.12 0.00 39 1006.0
20260509214509 81 318 7.0 11.0 0.00 0.12 0.00 38 1005.9
20260509213013 80 317 8.0 15.0 0.00 0.12 0.00 39 1006.0
20260509211508 80 288 9.0 17.0 0.00 0.12 0.00 40 1006.0
20260509210006 80 299 9.0 16.0 0.00 0.12 0.00 42 1006.1
20260509204511 80 307 13.0 19.0 0.00 0.12 0.00 41 1006.4
20260509203015 80 237 7.0 17.0 0.00 0.12 0.00 42 1006.4
20260509201504 80 224 4.0 13.0 0.00 0.12 0.00 45 1006.5
20260509200112 80 318 9.0 14.0 0.00 0.12 0.00 43 1006.7
20260509194559 79 267 7.0 13.0 0.00 0.12 0.00 45 1006.7
20260509193057 78 305 8.0 13.0 0.00 0.12 0.00 45 1006.7
20260509191555 78 290 8.0 15.0 0.00 0.12 0.00 47 1006.9
20260509190054 78 273 7.0 14.0 0.00 0.12 0.00 49 1006.9
20260509184551 78 270 6.0 15.0 0.00 0.12 0.00 49 1006.7
20260509183102 77 269 6.0 14.0 0.00 0.12 0.00 52 1006.7
20260509181549 77 266 10.0 16.0 0.00 0.12 0.00 50 1006.7
20260509180046 76 277 11.0 18.0 0.00 0.12 0.00 50 1006.9